www.pogodaiklimat.ru

АРХИВ ПОГОДЫ в Шарлотте

Время (UTC), дата Ветер
(напр.,м/с)
 
Видим.   Явления Облачность Т
(С)
Тd
(С)
f
(%)
Тe
(С)
Тes
(С)
Комфортность

P
(гПа)

Po
(гПа)
Тmin
(С)
Tmax
(С)
R
(мм)
SD
(см)
16:52 19.05 З  16 км    8/8 690 м
[верхняя] 
+27.0  +21.0  70  +34  +37  очень
душно 
1018.4  991.9  +21.1  +27.2     
17:11 19.05 З   16 км    8/8 810 м
[верхняя] 
+27.2  +21.1  69  +34  +37  очень
душно 
  991.6         
17:52 19.05 З   16 км    8/8 810 м
[верхняя] 
+27.0  +21.0  70  +34  +38  очень
душно 
1017.8  991.3         
18:16 19.05 ЮЗ  16 км    8/5 900 м
[верхняя] 
+27.8  +20.0  63  +34  +41  очень
душно 
  990.9         
18:52 19.05 ЮЗ  16 км    8/5 990 м
[верхняя] 
+28.3  +20.6  63  +35  +41  очень
душно 
1017.0  990.6         
19:52 19.05 Ю  16 км    8/8 1080 м
[верхняя] 
+27.8  +20.0  63  +34  +35  очень
душно 
1016.4           
20:52 19.05 Ю  16 км    8/5 1230 м
[верхняя] 
+27.8  +20.0  63  +34  +36  очень
душно 
1016.5  989.9         
21:52 19.05 Ю  16 км    5/2 1200 м
[верхняя] 
+27.8  +19.4  60  +33  +35  очень
душно 
1016.3  989.9         
22:52 19.05 Ю  8
{11} 
16 км    8/8 1230 м
[средняя верхняя] 
+26.7  +21.1  71  +34  +34  очень
душно 
1016.6  990.3  +26.7  +28.9     
23:52 19.05 Ю  16 км    8/2 1140 м
[средняя верхняя] 
+24.4  +21.1  82  +31  +31  очень
душно 
1017.6  990.9         
00:52 20.05 Ю  16 км    5/2 1080 м
[средняя верхняя] 
+23.3  +21.7  91  +32  +32  очень
душно 
1018.1  991.6         
01:52 20.05 Ю  16 км    5/2 540 м
[средняя верхняя] 
+23.3  +21.7  91  +32  +32  очень
душно 
1018.8  992.2         
02:52 20.05 Ю  16 км    8/2 510 м
[верхняя] 
+22.2  +21.1  93  +29  +29  очень
душно 
1019.2  992.6         
03:52 20.05 Ю  16 км    5/5 390 м  +22.2  +21.1  93  +29  +29  очень
душно 
1019.2  992.6         
04:52 20.05 Ю  16 км    8/8 480 м  +22.0  +21.0  94  +28  +28  душно  1019.4  992.9  +21.7  +26.7     
05:41 20.05 Ю  16 км    8/8 210 м  +21.7  +21.1  96  +28  +28  душно    992.6         
05:52 20.05 Ю  16 км    10/10 210 м  +21.7  +21.1  96  +28  +28  душно  1019.0  992.6         
06:52 20.05 Ю  16 км    8/8 270 м  +21.0  +21.0  100  +27  +27  душно  1018.5  992.2         
07:52 20.05 Ю  14 км    10/10 180 м  +21.0  +21.0  100  +27  +27  душно  1018.8  992.2         
08:52 20.05 Ю  14 км    10/10 180 м  +21.7  +21.1  96  +28  +28  душно  1018.9  992.6         
09:30 20.05 Ю  13 км    10/10 150 м  +21.1  +21.1  100  +26  +26  душно    992.6         
09:42 20.05 Ю  13 км    10/10 450 м  +21.7  +21.1  96  +28  +28  душно    992.9         
09:52 20.05 Ю  14 км    10/10 480 м  +21.7  +21.7  100  +28  +28  душно  1019.6  993.2         
10:52 20.05 Ю  16 км    10/10 630 м  +22.2  +21.7  97  +29  +29  очень
душно 
1020.1  993.6         
11:30 20.05 ЮЗ  16 км    8/8 240 м  +22.8  +21.7  94  +31  +31  очень
душно 
  993.6         
11:52 20.05 нст  16 км    8/8 270 м
[средняя] 
+23.0  +22.0  94  +31  +32  очень
душно 
1020.5  993.9         
12:25 20.05 ЮЗ  16 км    10/10 300 м  +24.0  +22.0  89  +31  +31  очень
душно 
  994.2         
12:52 20.05 ЮЗ  16 км    8/8 360 м
[верхняя] 
+24.0  +22.0  89  +31  +32  очень
душно 
1020.5  993.9         
13:15 20.05 ЮЗ  16 км    8/8 510 м
[верхняя] 
+25.0  +21.7  82  +32  +34  очень
душно 
  993.9         
13:52 20.05 ЮЗ  16 км    8/8 480 м
[средняя верхняя] 
+25.0  +22.0  83  +32  +34  очень
душно 
1020.7  994.2         
14:52 20.05 ЮЗ  16 км    8/8 480 м
[средняя верхняя] 
+26.0  +22.0  79  +34  +36  очень
душно 
1020.5  993.9         
15:52 20.05 З  16 км    8/8 600 м
[средняя верхняя] 
+27.0  +22.0  74  +35  +39  очень
душно 
1020.2  993.6         
16:02 20.05 штиль  16 км    2/2 630 м  +26.7  +21.7  74  +34  +57  опасность
солнечного
удара 
  993.6         
16:36 20.05 нст  16 км    8/8 690 м
[средняя верхняя] 
+27.8  +22.2  72  +36  +41  очень
душно 
  993.6         
16:52 20.05 Ю  16 км    8/8 690 м
[средняя верхняя] 
+28.0  +22.0  70  +36  +39  очень
душно 
1019.9  993.2  +22.2  +28.3     
16:59 20.05 ЮЗ  16 км    8/2 690 м
[средняя верхняя] 
+27.2  +21.7  72  +35  +44  очень
душно 
  993.2         
17:52 20.05 Ю  16 км    8/2 810 м
[средняя верхняя] 
+29.0  +22.0  66  +37  +45  очень
душно 
1019.4  992.9         
18:52 20.05 Ю  16 км    8/5 1020 м
[верхняя] 
+28.3  +21.1  65  +36  +42  очень
душно 
1018.7  992.2         
19:52 20.05 Ю  16 км    8/5 990 м
[верхняя] 
+29.4  +21.1  61  +37  +41  очень
душно 
1017.8  991.6         
20:35 20.05 Ю  16 км  гроза  8/5 1080 м
[верхняя] 
+28.3  +21.7  67  +36  +38  очень
душно 
  991.9         
20:52 20.05 Ю  16 км  гроза  8/5 1080 м
[верхняя] 
+27.2  +21.1  69  +34  +35  очень
душно 
1019.1           
20:59 20.05 Ю  16 км    8/5 1020 м
[верхняя] 
+26.7  +21.1  71  +34  +35  очень
душно 
  992.6         
21:07 20.05 Ю  16 км  гроза  8/5 960 м
[верхняя] 
+27.2  +21.1  69  +34  +35  очень
душно 
  992.6         
21:32 20.05 СЗ  6
{9} 
16 км  гроза  8/8 900 м
[средняя] 
+25.6  +19.4  69  +31  +31  очень
душно 
           
21:45 20.05 СЗ  7
{11} 
16 км  гроза  10/8 450 м
[средняя] 
+23.3  +17.2  69  +29  +29  душно             
21:52 20.05 С  6
{12} 
16 км  гроза  10/8 360 м
[средняя] 
+21.7  +17.8  78  +26  +26  душно  1021.1           
22:22 20.05 С  6 км  гроза с дождем, дымка  10/10 810 м  +19.0  +19.0  100  +21  +21  комфорт             
22:52 20.05 штиль  16 км  гроза со слабым дождем  8/5 1080 м
[средняя] 
+20.0  +19.0  94  +23  +24  комфорт  1020.5    +19.4  +30.0     

 

Местоположение метеостанции Charlotte / Douglas International Airport: широта 35.2133 долгота -80.9486 высота над уровнем моря 228 м.

В архиве по умолчанию представлена погода в Шарлотте за последние 1-2 суток. Обновление информации о фактической погоде в базе происходит ежечасно! Архивные данные за месяц целиком и за предыдущие месяцы Вы можете получить, выбрав интересующий диапазон дат из раскрывающегося списка и нажав кнопку "Ввод!".

Внимание! Архив погоды МЕТАР в базе сайта в настоящее время начинается c 1 января 2013 г. Нет смысла пытаться выбрать более раннюю дату.

Внимание! Время в таблицах - всемирное. Для получения местного времени необходимо прибавить поправку, которая в Шарлотте равна -5 ч.

Ветер - указаны скорость ветра в м/с и направление, откуда дует ветер: С - северный, СВ - северо-восточный, В - восточный, ЮВ - юго-восточный, Ю - южный, ЮЗ - юго-западный, З - западный, СЗ - северо-западный.
Видимость - горизонтальная дальность видимости в метрах или километрах. При видимости от 1 до 10 км при отсутствии осадков обычно наблюдается дымка, при ухудшении видимости до 1 км и менее - туман. В сухую погоду видимость может ухудшаться дымом, пылью или мглою.
Атмосферные явления - указаны явления, наблюдавшиеся в указанный момент времени.
Облачность - указаны через наклонную черту верхняя и нижняя облачность в баллах и высота нижней границы облаков в метрах. Внимание: облачность, как и прочие метеорологические величины в США измеряются автоматическими метеостанциями. Указанные значения в баллах носят условный характер и показывают процент времени, в течение которого, в среднем, лазерный луч высотомера отражался от облаков обратно.
T - Температура воздуха - температура, измеренная на высоте 2 м над землей.
Td - Температура точки росы - температура, при понижении до которой содержащийся в воздухе водяной пар достигнет насыщения.
f - Относительная влажность воздуха - влажноcть воздуха, измеренная на высоте 2 м над землей.
Te - Эффективная температура - температура, которую ощущает одетый по сезону человек в тени. Характеристика душности погоды. При расчете учитывается влияние влажности воздуха и скорости ветра на теплоощущения человека.
Tes - Эффективная температура на солнце - температура, которую ощущает человек, с поправкой на солнечный нагрев. Характеристика знойности погоды. Зависит от высоты солнца над горизонтом, облачности и скорости ветра. Ночью, в пасмурную погоду, а также при ветре 12 м/с и более поправка равна нулю.
P - Атмосферное давление - приведенное к уровню моря атмосферное давление.
Po - Атмосферное давление - измеренное на уровне метеостанции атмосферное давление.
Tmin - Минимальная температура - минимум температуры воздуха на высоте 2 м над землей.
Tmax - Максимальная температура - максимум температуры воздуха на высоте 2 м над землей.
R - Количество осадков - Количество выпавших осадков за 3 или 6 часов, мм.
SD - Снежный покров - Высота снежного покрова, см.